Flag for Austria Weather past 2 weeks in Kirchdorf an der Krems, Upper Austria, Austria

Now
55 °F

Cool.


Feels Like: 54 °F
Forecast: 42 / 68 °F
Wind: 6 mph from West

Location: Kremsmuenster

Current Time: May 27, 2015 at 4:58:00 PM

Latest Report: May 27, 2015 at 4:00 PM


Visibility: N/A

Pressure: 30.16 "Hg

Humidity: 60%

Dew point: 41 °F

Location of Kirchdorf an der KremsLocation

Historic Weather in Kirchdorf an der Krems — Graph

°F

Kirchdorf an der Krems temperature yesterday

Maximum temperature yesterday: 58 °F (at 2:00 PM)
Minimum temperature yesterday: 52 °F (at 9:00 PM)
Average temperature yesterday: 54 °F

Past Weeks' High & Low Weather Summary

 TemperatureHumidityPressure
High77 °F (May 12, 5:00 PM)96% (May 24, 8:00 AM)30.29 "Hg (May 24, 8:00 AM)
Low45 °F (May 21, 6:00 AM)44% (May 12, 4:00 PM)29.70 "Hg (May 18, 8:00 PM)
Average56 °F80%30.03 "Hg
* Reported May 12 3:00 PM — May 27 3:00 PM, Kirchdorf an der Krems, Weather by CustomWeather, © 2015

Note: Actual official high and low records may vary slightly from our data, if they occured in-between our weather recording intervals... More about our weather records

Advertising

Kirchdorf an der Krems weather history for previous 24 hours

 ConditionsComfort  
Time TempWeatherWind HumidityBarometerVisibility
3:00 PM
Wed, May 27
53 °FCool.3 mph73%30.17 "HgN/A
2:00 PM52 °FCool.6 mph70%30.17 "HgN/A
1:00 PM53 °FCool.8 mph65%30.17 "HgN/A
12:00 PM51 °FCool.2 mph74%30.18 "HgN/A
11:00 AM50 °FLight rain. Overcast.3 mph77%30.18 "Hg17 mi
10:00 AM50 °FCool.5 mph77%30.18 "HgN/A
9:00 AM50 °FCool.3 mph80%30.17 "HgN/A
8:00 AM49 °FOvercast.3 mph81%30.18 "Hg19 mi
7:00 AM49 °FOvercast.5 mph78%30.16 "Hg22 mi
6:00 AM48 °FCool.3 mph83%30.15 "HgN/A
5:00 AM49 °FCool.5 mph84%30.14 "HgN/A
4:00 AM49 °FCool.5 mph80%30.12 "HgN/A
3:00 AM50 °FCool.5 mph80%30.11 "HgN/A
2:00 AM50 °FCool.5 mph78%30.11 "HgN/A
1:00 AM51 °FCool.5 mph76%30.10 "HgN/A
12:00 AM52 °FCool.3 mph81%30.10 "HgN/A
10:00 PM
Tue, May 26
53 °FCool.3 mph93%30.08 "HgN/A
9:00 PM52 °FCool.2 mph85%30.06 "HgN/A
8:00 PM54 °FOvercast.1 mph86%30.04 "Hg19 mi
7:00 PM54 °FCool.3 mph88%30.01 "HgN/A
6:00 PM55 °FCool.2 mph92%29.98 "HgN/A
5:00 PM54 °FSprinkles. Low clouds.2 mph88%29.97 "Hg3 mi
4:00 PM54 °FFog.5 mph89%29.96 "HgN/A
Weather by CustomWeather, © 2015

See weather overviewHow to use our weather pages